Track STARLINK-1450 now! 10-day predictions STARLINK-1450 is classified as:
1 45667U 20035L 21027.43022321 .00002811 00000-0 20745-3 0 9990 2 45667 53.0284 169.0321 0001226 86.9461 273.1668 15.06411395 37287